パンスターズ彗星

C/2021 S3 ( PanSTARRS )

English version
Home page
Updated on June 5, 2024

---------------------------------------------------------------------

・ プロフィール

発見日 2021年9月24日
発見光度 20.1等
発見者 Pan-STARRS 2 telescope (Haleakala)

・ 写真集

・ 軌道要素

Epoch 2024 Mar. 31.0 TT = JDT 2460400.5
T 2024 Feb. 14.71134 TT                                 Rudenko
q   1.3202126            (2000.0)            P               Q
z  -0.0002139      Peri.    6.85495     -0.77078867     +0.39887808
 +/-0.0000015      Node   215.62101     -0.61750378     -0.65961096
e   1.0002823      Incl.   58.53298     -0.15676068     +0.63703191
>From 1192 observations 2020 Dec. 6-2024 Feb. 25, mean residual 0".5.

・ 星図

・ 光度変化

        m1 = -33   + 5 logΔ + 50   log r          [    ,-870]  (              〜2021年 9月27日)
        m1 =   5.0 + 5 logΔ + 10.0 log r          [-870,-343]  (2021年 9月27日〜2023年 3月 8日)
        m1 =   8.3 + 5 logΔ +  5.0 log r(t + 15)  [-343,  55]  (2023年 3月 8日〜2024年 4月 9日)
        m1 =   7.5 + 5 logΔ + 10.0 log r          [  55,    ]  (2024年 4月 9日〜              )

---------------------------------------------------------------------

軌道要素はM.P.E.C. 2024-D126に掲載されたものです。
星図はステラナビゲータ Ver.10 (アストロアーツ) で作成したものです。
光度グラフはComet for Windowsで作成したものです。

---------------------------------------------------------------------

Copyright(C) Seiichi Yoshida (comet@aerith.net). All rights reserved.